Location: site
(53.0000°N, 23.0500°E)
Time: 19:35:42
(UTC+01:00)

SAOCOM 1-A - Pass Details

Date: 09 December 2020
Orbit: 621 x 623 km, 97.9° (Epoch: 24 January)

Event Time Altitude Azimuth Distance (km) Brightness Sun altitude
Exits shadow 17:48:05 55° 134° (SE) 752 ? -22.2°
Drops below altitude 10° 17:51:52 10° 182° (S) 1,990 ? -22.7°
Sets 17:54:05 0° 186° (S) 2,891 ? -23.1°
